Location: Iesi
(43.5167°N, 13.2333°E)
Time: 21:02:32
(UTC+00:00)

X-37B - Pass Details

Date: 05 November 2020
Orbit: 384 x 390 km, 45.0° (Epoch: 26 November)

Event Time Altitude Azimuth Distance (km) Brightness Sun altitude
Exits shadow 03:45:45 39° 129° (SE) 598 1.8 -22.5°
Drops below altitude 10° 03:48:20 10° 83° (E) 1,415 4.5 -22.0°
Sets 03:50:27 0° 76° (ENE) 2,270 5.8 -21.6°
